Weather History for Albi, France

Change the Weather History Date:

Thursday, April 17, 2014

  Actual Average Record
Temperature  
Mean Temperature 59 °F -  
Max Temperature 75 °F - - ()
Min Temperature 43 °F - - ()
Degree Days  
Heating Degree Days 6    
Growing Degree Days 9 (Base 50)    
Moisture  
Dew Point 42 °F    
Average Humidity 48    
Maximum Humidity 84    
Minimum Humidity 18    
Precipitation  
Precipitation 0.00 in - - ()
Sea Level Pressure  
Sea Level Pressure 30.09 in    
Wind  
Wind Speed 4 mph ()    
Max Wind Speed 12 mph    
Max Gust Speed -    
Visibility 12.0 miles    
Events      
T = Trace of Precipitation, MM = Missing Value Source: Averaged Metar Reports

Daily Weather History Graph

Daily Weather History Graph

Search for Another Location

Airport:

Trip Planner

Search our weather history database for the weather conditions in past years. The results will help you decide how hot, cold, wet, or windy it might be!

Date:

Astronomy

Apr. 17, 2014 Rise Set
Actual Time 7:05 AM CEST 8:37 PM CEST
Civil Twilight 6:35 AM CEST 9:07 PM CEST
Nautical Twilight 5:58 AM CEST 9:44 PM CEST
Astronomical Twilight 5:19 AM CEST 10:23 PM CEST
Moon 11:11 PM CEST (4/17) 8:22 AM CEST (4/17)
Length of Visible Light 14h 32m
Length of Day
13h 32m
Waning Gibbous, 95% of the Moon is Illuminated
Apr 17
Waning Gibbous
Apr 22
Last Quarter
Apr 29
New
May 7
First Quarter
May 14
Full

Hourly Weather History & Observations

Time (CEST) Temp. Dew Point Humidity Pressure Visibility Wind Dir Wind Speed Gust Speed Precip Events Conditions
12:00 AM 52 °F 41 °F 56% 30.13 in 12 mi ENE 4.6 mph - -   Clear
1:00 AM 51 °F 42 °F 61% 30.14 in 12 mi East 3.5 mph - -   Clear
2:00 AM 49 °F 43 °F 71% 30.15 in 12 mi East 3.5 mph - -   Clear
3:00 AM 49 °F 43 °F 73% 30.14 in 12 mi East 3.5 mph - -   Clear
4:00 AM 47 °F 43 °F 79% 30.14 in 12 mi East 4.6 mph - -   Clear
5:00 AM 47 °F 42 °F 77% 30.13 in 12 mi ENE 2.3 mph - -   Clear
6:00 AM 45 °F 42 °F 84% 30.12 in 12 mi East 3.5 mph - -   Clear
7:00 AM 44 °F 40 °F 83% 30.13 in 12 mi East 3.5 mph - -   Clear
8:00 AM 47 °F 43 °F 79% 30.14 in 12 mi East 2.3 mph - -   Clear
9:00 AM 53 °F 44 °F 62% 30.14 in 12 mi ENE 4.6 mph - -   Clear
10:00 AM 58 °F 43 °F 46% 30.14 in 12 mi ESE 2.3 mph - -   Clear
11:00 AM 60 °F 40 °F 37% 30.13 in 12 mi SW 2.3 mph - -   Clear
12:00 PM 63 °F 43 °F 36% 30.12 in 12 mi SSW 3.5 mph - -   Clear
1:00 PM 65 °F 46 °F 40% 30.09 in 12 mi SSW 5.8 mph - -   Clear
2:00 PM 67 °F 46 °F 35% 30.07 in 12 mi West 5.8 mph - -   Clear
3:00 PM 70 °F 45 °F 29% 30.05 in 12 mi SW 8.1 mph - -   Clear
4:00 PM 74 °F 40 °F 18% 30.02 in 12 mi WSW 11.5 mph - -   Clear
5:00 PM 75 °F 42 °F 20% 30.01 in 12 mi WSW 11.5 mph - -   Clear
6:00 PM 74 °F 40 °F 18% 30.01 in 12 mi West 9.2 mph - -   Clear
7:00 PM 73 °F 41 °F 21% 30.00 in 12 mi West 11.5 mph - -   Clear
8:00 PM 70 °F 38 °F 20% 29.99 in 12 mi West 10.4 mph - -   Clear
9:00 PM 62 °F 41 °F 34% 30.01 in 12 mi WSW 4.6 mph - -   Clear
10:00 PM 60 °F 40 °F 36% 30.04 in 12 mi SW 3.5 mph - -   Clear
11:00 PM 56 °F 41 °F 46% 30.04 in 12 mi SW 5.8 mph - -   Clear